User: anonymous
Location: Writing-on-Stone Provincial Park
(49.0825°N, 111.6163°W)
Time: 21:40:47
(UTC-06:00)
Language:

BREEZE-M DEB (TANK) - Orbit

View from above orbital plane
View from above orbital plane
View from above satellite
View from above satellite

Ground track
Ground track

The orbit data is extracted from the following two-line orbital elements,

1 29649U 06056B   14292.17303508  .00004390  00000-0  62778-3 0   396
2 29649 049.4674 221.2266 5420601 277.4576 180.9867 04.95073616139376
Epoch (UTC): 19 October 2014 04:09:10
Eccentricity: 0.5420601
inclination: 49.4674°
perigee height: 281 km
apogee height: 16046 km
right ascension of ascending node: 221.2266°
argument of perigee: 277.4576°
revolutions per day: 4.95073616
mean anomaly at epoch: 180.9867°
orbit number at epoch: 13937

The dashed part of the orbit path shows where the satellite is in the earth's shadow,  

DLR